UCA4301 KIAD-KBTV

Flight info

Callsign UCA4301
Flight time 1h 7m
Altitude 33000
Route JCOBY4 SWANN BROSS Q419 RBV Q22 LLUND BIZEX CAM GRNMT BTV
Aircraft E45X/M-SABDFGRW/S

Departure

Time 2026-05-07 04:14
Airport Washington Dulles International Airport (KIAD)

Arrival

Time 2026-05-07 05:22
Airport Patrick Leahy Burlington International Airport (KBTV)
Time Latitude Longitude Altitude Speed Heading
2026-05-07 03:52 38.94802 -77.44093 296 ft 0 kts 321°
2026-05-07 04:01 38.94797 -77.44089 297 ft 2 kts 359°
2026-05-07 04:01 38.94784 -77.44087 297 ft 2 kts 340°
2026-05-07 04:01 38.94769 -77.44083 297 ft 2 kts
2026-05-07 04:01 38.94754 -77.44083 297 ft 2 kts
2026-05-07 04:02 38.94742 -77.44084 297 ft 0 kts
2026-05-07 04:02 38.94736 -77.44083 297 ft 0 kts 315°
2026-05-07 04:02 38.94733 -77.44077 297 ft 1 kts 268°
2026-05-07 04:02 38.94733 -77.44072 298 ft 0 kts 270°
2026-05-07 04:04 38.94733 -77.44077 297 ft 2 kts 261°
2026-05-07 04:05 38.94725 -77.44147 297 ft 12 kts 268°
2026-05-07 04:05 38.94727 -77.44265 296 ft 8 kts 270°
2026-05-07 04:05 38.94726 -77.44307 296 ft 0 kts 268°
2026-05-07 04:05 38.94726 -77.44319 296 ft 3 kts 271°
2026-05-07 04:06 38.94727 -77.44390 296 ft 10 kts 271°
2026-05-07 04:06 38.94728 -77.44492 295 ft 12 kts 270°
2026-05-07 04:06 38.94729 -77.44622 294 ft 15 kts 271°
2026-05-07 04:06 38.94730 -77.44774 294 ft 16 kts 271°
2026-05-07 04:07 38.94732 -77.44908 293 ft 15 kts 271°
2026-05-07 04:07 38.94732 -77.45048 293 ft 16 kts 270°
2026-05-07 04:07 38.94734 -77.45199 292 ft 15 kts 271°
2026-05-07 04:07 38.94735 -77.45350 291 ft 18 kts 270°
2026-05-07 04:08 38.94737 -77.45512 289 ft 12 kts 271°
2026-05-07 04:08 38.94710 -77.45600 289 ft 11 kts 203°
2026-05-07 04:08 38.94619 -77.45609 289 ft 14 kts 181°
2026-05-07 04:08 38.94512 -77.45612 290 ft 15 kts 183°
2026-05-07 04:09 38.94434 -77.45615 290 ft 11 kts 180°
2026-05-07 04:09 38.94342 -77.45613 291 ft 14 kts 179°
2026-05-07 04:09 38.94266 -77.45614 291 ft 9 kts 180°
2026-05-07 04:09 38.94190 -77.45615 291 ft 12 kts 181°
2026-05-07 04:10 38.94096 -77.45616 291 ft 14 kts 181°
2026-05-07 04:10 38.93982 -77.45617 290 ft 17 kts 180°
2026-05-07 04:10 38.93863 -77.45619 289 ft 16 kts 181°
2026-05-07 04:10 38.93744 -77.45621 287 ft 17 kts 178°
2026-05-07 04:11 38.93646 -77.45524 286 ft 18 kts 131°
2026-05-07 04:11 38.93539 -77.45520 285 ft 14 kts 201°
2026-05-07 04:11 38.93484 -77.45548 284 ft 0 kts 201°
2026-05-07 04:12 38.93483 -77.45548 284 ft 0 kts 201°
2026-05-07 04:12 38.93469 -77.45554 284 ft 4 kts 201°
2026-05-07 04:12 38.93426 -77.45575 283 ft 8 kts 201°
2026-05-07 04:12 38.93372 -77.45622 282 ft 10 kts 272°
2026-05-07 04:13 38.93382 -77.45662 283 ft 0 kts 291°
2026-05-07 04:13 38.93412 -77.45761 283 ft 41 kts 291°
2026-05-07 04:13 38.93615 -77.46451 288 ft 117 kts 291°
2026-05-07 04:14 38.93958 -77.47652 395 ft 159 kts 293°
2026-05-07 04:14 38.94354 -77.49117 873 ft 184 kts 292°
2026-05-07 04:14 38.94752 -77.50741 1621 ft 194 kts 293°
2026-05-07 04:14 38.95421 -77.52221 2525 ft 194 kts 309°
2026-05-07 04:15 38.96320 -77.53715 2940 ft 227 kts 309°
2026-05-07 04:15 38.97365 -77.55252 4049 ft 233 kts 321°
2026-05-07 04:15 38.98898 -77.56004 5123 ft 249 kts 352°
2026-05-07 04:15 39.00646 -77.55533 6002 ft 274 kts 23°
2026-05-07 04:16 39.02353 -77.54266 6932 ft 288 kts 36°
2026-05-07 04:16 39.03722 -77.52336 7949 ft 296 kts 50°
2026-05-07 04:16 39.04986 -77.50175 8909 ft 304 kts 52°
2026-05-07 04:16 39.06230 -77.47971 9843 ft 311 kts 52°
2026-05-07 04:17 39.07526 -77.45660 10737 ft 319 kts 51°
2026-05-07 04:17 39.08831 -77.43327 11600 ft 328 kts 51°
2026-05-07 04:17 39.10268 -77.40762 11686 ft 364 kts 52°
2026-05-07 04:17 39.11775 -77.38060 11945 ft 383 kts 51°
2026-05-07 04:18 39.13340 -77.35256 12617 ft 387 kts 52°
2026-05-07 04:18 39.14757 -77.32361 13310 ft 392 kts 65°
2026-05-07 04:18 39.15422 -77.28941 13915 ft 397 kts 87°
2026-05-07 04:18 39.15185 -77.25468 14439 ft 398 kts 109°
2026-05-07 04:19 39.14508 -77.22479 14905 ft 404 kts 107°
2026-05-07 04:19 39.13867 -77.18665 15475 ft 411 kts 106°
2026-05-07 04:19 39.13266 -77.14983 16071 ft 416 kts 105°
2026-05-07 04:19 39.12668 -77.11227 16567 ft 423 kts 105°
2026-05-07 04:20 39.12071 -77.07474 17107 ft 428 kts 106°
2026-05-07 04:20 39.11460 -77.03657 17604 ft 434 kts 105°
2026-05-07 04:20 39.10864 -76.99831 18101 ft 439 kts 102°
2026-05-07 04:21 39.10884 -76.91803 19141 ft 451 kts 89°
2026-05-07 04:21 39.10990 -76.87685 19586 ft 458 kts 90°
2026-05-07 04:21 39.11097 -76.83484 20086 ft 461 kts 90°
2026-05-07 04:21 39.11200 -76.79300 20245 ft 476 kts 90°
2026-05-07 04:22 39.11307 -76.74985 20329 ft 490 kts 90°
2026-05-07 04:22 39.11415 -76.70493 20812 ft 493 kts 90°
2026-05-07 04:22 39.11522 -76.66056 21384 ft 493 kts 90°
2026-05-07 04:22 39.11624 -76.61650 21967 ft 493 kts 90°
2026-05-07 04:23 39.11726 -76.57172 22334 ft 498 kts 90°
2026-05-07 04:23 39.11841 -76.52676 22823 ft 501 kts 87°
2026-05-07 04:23 39.12298 -76.48164 23306 ft 503 kts 82°
2026-05-07 04:23 39.12807 -76.43710 23873 ft 503 kts 82°
2026-05-07 04:24 39.13316 -76.39224 24469 ft 502 kts 82°
2026-05-07 04:24 39.13819 -76.34760 25022 ft 502 kts 83°
2026-05-07 04:24 39.14330 -76.30215 25508 ft 504 kts 83°
2026-05-07 04:24 39.14811 -76.25909 25969 ft 505 kts 82°
2026-05-07 04:25 39.15314 -76.21433 26567 ft 503 kts 83°
2026-05-07 04:25 39.15763 -76.17557 27020 ft 503 kts 82°
2026-05-07 04:25 39.16284 -76.13031 27525 ft 503 kts 82°
2026-05-07 04:25 39.16799 -76.08539 27988 ft 504 kts 82°
2026-05-07 04:26 39.17313 -76.04044 28511 ft 504 kts 82°
2026-05-07 04:26 39.17837 -75.99475 28942 ft 506 kts 81°
2026-05-07 04:26 39.18628 -75.95083 29511 ft 503 kts 71°
2026-05-07 04:26 39.19921 -75.90784 29999 ft 500 kts 60°
2026-05-07 04:27 39.21582 -75.86859 30390 ft 499 kts 55°
2026-05-07 04:27 39.23492 -75.83094 30870 ft 490 kts 44°
2026-05-07 04:27 39.25755 -75.79780 31300 ft 481 kts 34°
2026-05-07 04:27 39.28331 -75.76979 31673 ft 469 kts 22°
2026-05-07 04:28 39.31049 -75.74680 32277 ft 462 kts 22°
2026-05-07 04:28 39.33673 -75.72071 32847 ft 468 kts 26°
2026-05-07 04:28 39.36248 -75.69325 32876 ft 482 kts 27°
2026-05-07 04:28 39.38876 -75.66460 32892 ft 491 kts 28°
2026-05-07 04:29 39.44214 -75.60595 32899 ft 506 kts 28°
2026-05-07 04:29 39.49742 -75.54507 32893 ft 521 kts 28°
2026-05-07 04:30 39.55324 -75.48342 32890 ft 525 kts 29°
2026-05-07 04:30 39.60878 -75.42194 32896 ft 512 kts 29°
2026-05-07 04:31 39.66273 -75.36212 32899 ft 501 kts 28°
2026-05-07 04:31 39.71553 -75.30349 32866 ft 493 kts 29°
2026-05-07 04:32 39.76782 -75.24528 32874 ft 488 kts 29°
2026-05-07 04:32 39.81710 -75.18101 32892 ft 503 kts 40°
2026-05-07 04:33 39.86363 -75.11165 32887 ft 507 kts 39°
2026-05-07 04:33 39.91076 -75.04153 32883 ft 510 kts 39°
2026-05-07 04:34 39.95808 -74.97098 32880 ft 515 kts 40°
2026-05-07 04:34 39.98052 -74.93296 32882 ft 527 kts 48°
2026-05-07 04:34 40.00077 -74.89271 32878 ft 530 kts 49°
2026-05-07 04:35 40.04208 -74.81157 32875 ft 535 kts 48°
2026-05-07 04:35 40.08374 -74.72968 32872 ft 539 kts 49°
2026-05-07 04:36 40.12513 -74.64805 32873 ft 542 kts 49°
2026-05-07 04:36 40.16671 -74.56589 32867 ft 546 kts 49°
2026-05-07 04:37 40.21158 -74.48811 32865 ft 534 kts 36°
2026-05-07 04:37 40.23883 -74.45498 32873 ft 521 kts 26°
2026-05-07 04:37 40.26762 -74.42527 32870 ft 520 kts 27°
2026-05-07 04:38 40.32407 -74.36518 32863 ft 520 kts 28°
2026-05-07 04:38 40.38003 -74.30525 32845 ft 518 kts 28°
2026-05-07 04:39 40.43515 -74.24606 32846 ft 515 kts 28°
2026-05-07 04:39 40.49121 -74.18568 32858 ft 512 kts 27°
2026-05-07 04:40 40.54631 -74.12627 32855 ft 511 kts 28°
2026-05-07 04:40 40.60158 -74.06653 32860 ft 510 kts 27°
2026-05-07 04:41 40.65668 -74.00684 32866 ft 509 kts 28°
2026-05-07 04:41 40.71159 -73.94721 32864 ft 509 kts 27°
2026-05-07 04:42 40.76646 -73.88752 32864 ft 508 kts 27°
2026-05-07 04:42 40.82163 -73.82734 32875 ft 508 kts 27°
2026-05-07 04:43 40.87915 -73.77612 32873 ft 482 kts 11°
2026-05-07 04:43 40.91004 -73.75923 32880 ft 465 kts
2026-05-07 04:43 40.94075 -73.74521 32857 ft 468 kts
2026-05-07 04:44 41.00291 -73.71568 32870 ft 472 kts
2026-05-07 04:44 41.06554 -73.68572 32864 ft 475 kts
2026-05-07 04:45 41.12830 -73.65564 32862 ft 477 kts
2026-05-07 04:45 41.18948 -73.62624 32867 ft 479 kts
2026-05-07 04:46 41.24692 -73.59860 32871 ft 480 kts
2026-05-07 04:46 41.28101 -73.58373 32870 ft 467 kts 357°
2026-05-07 04:46 41.31271 -73.57608 32868 ft 447 kts 348°
2026-05-07 04:47 41.37510 -73.56831 32873 ft 447 kts 348°
2026-05-07 04:47 41.43738 -73.55994 32870 ft 449 kts 348°
2026-05-07 04:48 41.50031 -73.55142 32871 ft 449 kts 348°
2026-05-07 04:48 41.56365 -73.54282 32865 ft 449 kts 348°
2026-05-07 04:49 41.62667 -73.53426 32866 ft 448 kts 347°
2026-05-07 04:49 41.68929 -73.52573 32865 ft 448 kts 348°
2026-05-07 04:50 41.75200 -73.51717 32853 ft 448 kts 347°
2026-05-07 04:50 41.81437 -73.50862 32849 ft 444 kts 347°
2026-05-07 04:51 41.87646 -73.50013 32849 ft 444 kts 347°
2026-05-07 04:51 41.93859 -73.49160 32855 ft 445 kts 347°
2026-05-07 04:52 42.00124 -73.48298 32859 ft 446 kts 347°
2026-05-07 04:52 42.06331 -73.47443 32864 ft 447 kts 347°
2026-05-07 04:53 42.12468 -73.46595 32857 ft 448 kts 347°
2026-05-07 04:53 42.18475 -73.45763 32858 ft 448 kts 347°
2026-05-07 04:54 42.24661 -73.44907 32857 ft 448 kts 347°
2026-05-07 04:54 42.30891 -73.44035 32849 ft 434 kts 346°
2026-05-07 04:55 42.33183 -73.43715 32859 ft 427 kts 346°
2026-05-07 04:55 42.39235 -73.42879 32863 ft 432 kts 347°
2026-05-07 04:56 42.45329 -73.42031 32861 ft 440 kts 347°
2026-05-07 04:56 42.51550 -73.41161 32876 ft 448 kts 347°
2026-05-07 04:57 42.57694 -73.40291 32721 ft 431 kts 346°
2026-05-07 04:57 42.60744 -73.39865 32441 ft 426 kts 346°
2026-05-07 04:57 42.63708 -73.39449 32174 ft 422 kts 346°
2026-05-07 04:58 42.66658 -73.39035 31910 ft 419 kts 346°
2026-05-07 04:58 42.69577 -73.38625 31645 ft 416 kts 346°
2026-05-07 04:58 42.72490 -73.38216 31385 ft 417 kts 346°
2026-05-07 04:58 42.75406 -73.37807 31132 ft 421 kts 347°
2026-05-07 04:59 42.78382 -73.37388 30872 ft 424 kts 347°
2026-05-07 04:59 42.81387 -73.36963 30634 ft 427 kts 347°
2026-05-07 04:59 42.84381 -73.36540 30380 ft 430 kts 347°
2026-05-07 04:59 42.87379 -73.36116 30124 ft 432 kts 347°
2026-05-07 05:00 42.90398 -73.35687 29866 ft 435 kts 347°
2026-05-07 05:00 42.93453 -73.35255 29609 ft 438 kts 348°
2026-05-07 05:00 42.96520 -73.34818 29348 ft 439 kts 349°
2026-05-07 05:00 42.99593 -73.34303 29031 ft 451 kts 354°
2026-05-07 05:01 43.02647 -73.33277 28695 ft 467 kts
2026-05-07 05:01 43.05770 -73.32094 28131 ft 467 kts
2026-05-07 05:01 43.08954 -73.30915 27588 ft 468 kts
2026-05-07 05:01 43.12021 -73.29784 27049 ft 467 kts
2026-05-07 05:02 43.15014 -73.28681 26504 ft 466 kts
2026-05-07 05:02 43.18196 -73.27508 25930 ft 466 kts
2026-05-07 05:02 43.21260 -73.26376 25379 ft 458 kts
2026-05-07 05:02 43.24372 -73.25225 24810 ft 446 kts
2026-05-07 05:03 43.27273 -73.24153 24276 ft 436 kts
2026-05-07 05:03 43.30198 -73.23069 23713 ft 427 kts
2026-05-07 05:03 43.33045 -73.22016 23170 ft 419 kts
2026-05-07 05:03 43.35877 -73.20966 22611 ft 411 kts
2026-05-07 05:04 43.38667 -73.19931 21979 ft 407 kts
2026-05-07 05:04 43.41408 -73.18914 21355 ft 402 kts
2026-05-07 05:04 43.44135 -73.17900 20723 ft 398 kts
2026-05-07 05:04 43.46822 -73.16901 20089 ft 395 kts
2026-05-07 05:05 43.49520 -73.15895 19471 ft 392 kts
2026-05-07 05:05 43.52137 -73.14920 18846 ft 389 kts
2026-05-07 05:05 43.54791 -73.13929 18216 ft 386 kts
2026-05-07 05:05 43.57392 -73.12957 17604 ft 382 kts
2026-05-07 05:06 43.59974 -73.11992 16975 ft 379 kts
2026-05-07 05:06 43.62512 -73.11042 16355 ft 376 kts
2026-05-07 05:06 43.65038 -73.10096 15821 ft 374 kts
2026-05-07 05:06 43.67646 -73.09122 15260 ft 386 kts
2026-05-07 05:07 43.70257 -73.08142 14737 ft 395 kts
2026-05-07 05:07 43.72990 -73.07116 14222 ft 402 kts
2026-05-07 05:07 43.75677 -73.06101 13771 ft 394 kts
2026-05-07 05:07 43.78347 -73.05097 13328 ft 387 kts
2026-05-07 05:08 43.80966 -73.04112 12882 ft 381 kts
2026-05-07 05:08 43.83539 -73.03141 12422 ft 371 kts
2026-05-07 05:08 43.86029 -73.02201 11979 ft 360 kts 10°
2026-05-07 05:08 43.88412 -73.01301 11536 ft 351 kts
2026-05-07 05:09 43.90789 -73.00404 11085 ft 342 kts 10°
2026-05-07 05:09 43.93064 -72.99541 10952 ft 324 kts 10°
2026-05-07 05:09 43.95190 -72.98735 10945 ft 305 kts
2026-05-07 05:09 43.97271 -72.97949 10958 ft 303 kts
2026-05-07 05:10 43.99314 -72.97165 10952 ft 300 kts
2026-05-07 05:10 44.01305 -72.96389 10788 ft 292 kts 10°
2026-05-07 05:10 44.03304 -72.95612 10380 ft 291 kts 10°
2026-05-07 05:10 44.05257 -72.94851 10024 ft 288 kts 11°
2026-05-07 05:11 44.07217 -72.94085 9658 ft 286 kts 11°
2026-05-07 05:11 44.09150 -72.93330 9349 ft 282 kts 10°
2026-05-07 05:11 44.11053 -72.92587 8989 ft 280 kts 11°
2026-05-07 05:11 44.12918 -72.91859 8691 ft 275 kts 11°
2026-05-07 05:12 44.14747 -72.90939 8341 ft 278 kts 28°
2026-05-07 05:12 44.16260 -72.89219 8074 ft 271 kts 38°
2026-05-07 05:12 44.17680 -72.87506 7508 ft 270 kts 37°
2026-05-07 05:12 44.19034 -72.85870 7047 ft 265 kts 37°
2026-05-07 05:13 44.20301 -72.84336 6956 ft 249 kts 37°
2026-05-07 05:13 44.21600 -72.82764 6958 ft 244 kts 37°
2026-05-07 05:13 44.22903 -72.81248 6951 ft 235 kts 29°
2026-05-07 05:13 44.24435 -72.80602 6651 ft 226 kts 354°
2026-05-07 05:14 44.25900 -72.81301 6349 ft 216 kts 320°
2026-05-07 05:14 44.26966 -72.82763 6061 ft 215 kts 312°
2026-05-07 05:14 44.27996 -72.84335 5757 ft 218 kts 310°
2026-05-07 05:14 44.29019 -72.85949 5451 ft 219 kts 310°
2026-05-07 05:15 44.30028 -72.87553 5132 ft 217 kts 311°
2026-05-07 05:15 44.31168 -72.88942 4814 ft 214 kts 319°
2026-05-07 05:15 44.32305 -72.90260 4670 ft 205 kts 319°
2026-05-07 05:15 44.33408 -72.91414 4642 ft 191 kts 316°
2026-05-07 05:16 44.34206 -72.92841 4623 ft 179 kts 299°
2026-05-07 05:16 44.34734 -72.94411 4356 ft 175 kts 298°
2026-05-07 05:16 44.35360 -72.95829 4099 ft 171 kts 305°
2026-05-07 05:16 44.36043 -72.97120 3886 ft 153 kts 308°
2026-05-07 05:17 44.36680 -72.98226 3628 ft 137 kts 309°
2026-05-07 05:17 44.37279 -72.99226 3426 ft 131 kts 310°
2026-05-07 05:17 44.37874 -73.00200 3224 ft 131 kts 311°
2026-05-07 05:17 44.38475 -73.01173 3037 ft 132 kts 311°
2026-05-07 05:18 44.39080 -73.02147 2844 ft 133 kts 311°
2026-05-07 05:18 44.39687 -73.03122 2639 ft 130 kts 311°
2026-05-07 05:18 44.40280 -73.04072 2440 ft 128 kts 311°
2026-05-07 05:18 44.40862 -73.05004 2234 ft 125 kts 311°
2026-05-07 05:19 44.41441 -73.05931 2034 ft 125 kts 311°
2026-05-07 05:19 44.42028 -73.06874 1868 ft 131 kts 311°
2026-05-07 05:19 44.42634 -73.07847 1672 ft 131 kts 310°
2026-05-07 05:19 44.43235 -73.08813 1479 ft 130 kts 311°
2026-05-07 05:20 44.43836 -73.09779 1290 ft 131 kts 311°
2026-05-07 05:20 44.44429 -73.10731 1098 ft 131 kts 311°
2026-05-07 05:20 44.45038 -73.11711 901 ft 132 kts 311°
2026-05-07 05:20 44.45635 -73.12669 699 ft 129 kts 311°
2026-05-07 05:21 44.46227 -73.13618 514 ft 128 kts 310°
2026-05-07 05:21 44.47319 -73.15381 329 ft 96 kts 310°
2026-05-07 05:21 44.47657 -73.15928 316 ft 52 kts 311°
2026-05-07 05:22 44.47849 -73.16233 309 ft 33 kts 311°
2026-05-07 05:22 44.47945 -73.16428 307 ft 19 kts 267°
2026-05-07 05:22 44.47890 -73.16530 307 ft 9 kts 211°
2026-05-07 05:22 44.47848 -73.16522 308 ft 7 kts 140°
2026-05-07 05:23 44.47801 -73.16451 308 ft 12 kts 130°
2026-05-07 05:23 44.47740 -73.16351 310 ft 14 kts 130°
2026-05-07 05:23 44.47671 -73.16240 312 ft 15 kts 130°
2026-05-07 05:23 44.47599 -73.16124 315 ft 16 kts 130°
2026-05-07 05:24 44.47530 -73.16013 318 ft 13 kts 131°
2026-05-07 05:24 44.47474 -73.15921 320 ft 11 kts 129°
2026-05-07 05:24 44.47428 -73.15846 321 ft 9 kts 132°
2026-05-07 05:24 44.47384 -73.15778 323 ft 9 kts 131°
2026-05-07 05:25 44.47340 -73.15707 325 ft 9 kts 131°
2026-05-07 05:25 44.47295 -73.15632 327 ft 10 kts 130°
2026-05-07 05:25 44.47245 -73.15550 328 ft 11 kts 130°
2026-05-07 05:25 44.47190 -73.15463 330 ft 12 kts 130°
2026-05-07 05:26 44.47121 -73.15424 331 ft 10 kts 174°
2026-05-07 05:26 44.47081 -73.15434 331 ft 5 kts 195°
2026-05-07 05:26 44.47074 -73.15437 331 ft 0 kts 195°
2026-05-07 05:26 44.47064 -73.15440 331 ft 0 kts 195°
2026-05-07 05:27 44.47063 -73.15441 331 ft 0 kts 195°